Year,Month,Day,Hour,Minute,Value (Times are PST for temperature in C)
2016,04,01,00,00,8.90
2016,04,01,00,01,8.90
2016,04,01,00,02,8.90
2016,04,01,00,03,8.90
2016,04,01,00,04,8.90
2016,04,01,00,05,8.90
2016,04,01,00,06,8.90
2016,04,01,00,07,8.90
2016,04,01,00,08,8.90
2016,04,01,00,09,8.80
2016,04,01,00,10,8.80
2016,04,01,00,11,8.80
2016,04,01,00,12,8.80
2016,04,01,00,13,8.80
2016,04,01,00,14,8.70
2016,04,01,00,15,8.70
2016,04,01,00,16,8.70
2016,04,01,00,17,8.70
2016,04,01,00,18,8.70
2016,04,01,00,19,8.60
2016,04,01,00,20,8.60
2016,04,01,00,21,8.60
2016,04,01,00,22,8.60
2016,04,01,00,23,8.60
2016,04,01,00,24,8.60
2016,04,01,00,25,8.60
2016,04,01,00,26,8.60
2016,04,01,00,27,8.60
2016,04,01,00,28,8.60
2016,04,01,00,29,8.60
2016,04,01,00,30,8.60
2016,04,01,00,31,8.60
2016,04,01,00,32,8.60
2016,04,01,00,33,8.60
2016,04,01,00,34,8.60
2016,04,01,00,35,8.60
2016,04,01,00,36,8.60
2016,04,01,00,37,8.60
2016,04,01,00,38,8.60
2016,04,01,00,39,8.60
2016,04,01,00,40,8.60
2016,04,01,00,41,8.60
2016,04,01,00,42,8.60
2016,04,01,00,43,8.60
2016,04,01,00,44,8.60
2016,04,01,00,45,8.60
2016,04,01,00,46,8.60
2016,04,01,00,47,8.50
2016,04,01,00,48,8.50
2016,04,01,00,49,8.40
2016,04,01,00,50,8.40
2016,04,01,00,51,8.40
2016,04,01,00,52,8.30
2016,04,01,00,53,8.30
2016,04,01,00,54,8.30
2016,04,01,00,55,8.30
2016,04,01,00,56,8.30
2016,04,01,00,57,8.40
2016,04,01,00,58,8.40
2016,04,01,00,59,8.40
2016,04,01,01,00,8.40
2016,04,01,01,01,8.40
2016,04,01,01,02,8.30
2016,04,01,01,03,8.30
2016,04,01,01,04,8.30
2016,04,01,01,05,8.30
2016,04,01,01,06,8.20
2016,04,01,01,07,8.20
2016,04,01,01,08,8.20
2016,04,01,01,09,8.20
2016,04,01,01,10,8.10
2016,04,01,01,11,8.10
2016,04,01,01,12,8.10
2016,04,01,01,13,8.10
2016,04,01,01,14,8.10
2016,04,01,01,15,8.10
2016,04,01,01,16,8.10
2016,04,01,01,17,8.10
2016,04,01,01,18,8.10
2016,04,01,01,19,8.10
2016,04,01,01,20,8.10
2016,04,01,01,21,8.10
2016,04,01,01,22,8.00
2016,04,01,01,23,8.00
2016,04,01,01,24,8.00
2016,04,01,01,25,8.00
2016,04,01,01,26,7.90
2016,04,01,01,27,7.90
2016,04,01,01,28,7.90
2016,04,01,01,29,7.90
2016,04,01,01,30,7.90
2016,04,01,01,31,7.90
2016,04,01,01,32,7.90
2016,04,01,01,33,7.90
2016,04,01,01,34,7.90
2016,04,01,01,35,7.90
2016,04,01,01,36,7.90
2016,04,01,01,37,7.90
2016,04,01,01,38,7.90
2016,04,01,01,39,8.00
2016,04,01,01,40,8.00
2016,04,01,01,41,8.10
2016,04,01,01,42,8.10
2016,04,01,01,43,8.10
2016,04,01,01,44,8.00
2016,04,01,01,45,8.00
2016,04,01,01,46,8.00
2016,04,01,01,47,7.90
2016,04,01,01,48,7.90
2016,04,01,01,49,7.90
2016,04,01,01,50,7.80
2016,04,01,01,51,7.80
2016,04,01,01,52,7.80
2016,04,01,01,53,7.80
2016,04,01,01,54,7.80
2016,04,01,01,55,7.80
2016,04,01,01,56,7.80
2016,04,01,01,57,7.80
2016,04,01,01,58,7.80
2016,04,01,01,59,7.80
2016,04,01,02,00,7.80
2016,04,01,02,01,7.80
2016,04,01,02,02,7.80
2016,04,01,02,03,7.80
2016,04,01,02,04,7.80
2016,04,01,02,05,7.80
2016,04,01,02,06,7.80
2016,04,01,02,07,7.80
2016,04,01,02,08,7.80
2016,04,01,02,09,7.80
2016,04,01,02,10,7.80
2016,04,01,02,11,7.80
2016,04,01,02,12,7.70
2016,04,01,02,13,7.70
2016,04,01,02,14,7.70
2016,04,01,02,15,7.70
2016,04,01,02,16,7.60
2016,04,01,02,17,7.60
2016,04,01,02,18,7.50
2016,04,01,02,19,7.50
2016,04,01,02,20,7.40
2016,04,01,02,21,7.40
2016,04,01,02,22,7.40
2016,04,01,02,23,7.30
2016,04,01,02,24,7.30
2016,04,01,02,25,7.30
2016,04,01,02,26,7.30
2016,04,01,02,27,7.30
2016,04,01,02,28,7.30
2016,04,01,02,29,7.30
2016,04,01,02,30,7.40
2016,04,01,02,31,7.40
2016,04,01,02,32,7.40
2016,04,01,02,33,7.40
2016,04,01,02,34,7.40
2016,04,01,02,35,7.40
2016,04,01,02,36,7.40
2016,04,01,02,37,7.40
2016,04,01,02,38,7.30
2016,04,01,02,39,7.30
2016,04,01,02,40,7.30
2016,04,01,02,41,7.30
2016,04,01,02,42,7.30
2016,04,01,02,43,7.30
2016,04,01,02,44,7.30
2016,04,01,02,45,7.30
2016,04,01,02,46,7.20
2016,04,01,02,47,7.20
2016,04,01,02,48,7.20
2016,04,01,02,49,7.20
2016,04,01,02,50,7.20
2016,04,01,02,51,7.20
2016,04,01,02,52,7.20
2016,04,01,02,53,7.20
2016,04,01,02,54,7.20
2016,04,01,02,55,7.20
2016,04,01,02,56,7.20
2016,04,01,02,57,7.20
2016,04,01,02,58,7.20
2016,04,01,02,59,7.20
2016,04,01,03,00,7.20
2016,04,01,03,01,7.20
2016,04,01,03,02,7.20
2016,04,01,03,03,7.20
2016,04,01,03,04,7.10
2016,04,01,03,05,7.10
2016,04,01,03,06,7.10
2016,04,01,03,07,7.10
2016,04,01,03,08,7.10
2016,04,01,03,09,7.00
2016,04,01,03,10,7.00
2016,04,01,03,11,7.10
2016,04,01,03,12,7.10
2016,04,01,03,13,7.10
2016,04,01,03,14,7.10
2016,04,01,03,15,7.20
2016,04,01,03,16,7.20
2016,04,01,03,17,7.20
2016,04,01,03,18,7.20
2016,04,01,03,19,7.20
2016,04,01,03,20,7.20
2016,04,01,03,21,7.20
2016,04,01,03,22,7.20
2016,04,01,03,23,7.10
2016,04,01,03,24,7.10
2016,04,01,03,25,7.10
2016,04,01,03,26,7.00
2016,04,01,03,27,6.90
2016,04,01,03,28,6.90
2016,04,01,03,29,6.90
2016,04,01,03,30,6.90
2016,04,01,03,31,6.90
2016,04,01,03,32,6.90
2016,04,01,03,33,6.90
2016,04,01,03,34,6.90
2016,04,01,03,35,6.90
2016,04,01,03,36,6.90
2016,04,01,03,37,6.90
2016,04,01,03,38,6.90
2016,04,01,03,39,6.80
2016,04,01,03,40,6.80
2016,04,01,03,41,6.80
2016,04,01,03,42,6.80
2016,04,01,03,43,6.70
2016,04,01,03,44,6.70
2016,04,01,03,45,6.70
2016,04,01,03,46,6.70
2016,04,01,03,47,6.70
2016,04,01,03,48,6.70
2016,04,01,03,49,6.70
2016,04,01,03,50,6.70
2016,04,01,03,51,6.80
2016,04,01,03,52,6.80
2016,04,01,03,53,6.80
2016,04,01,03,54,6.90
2016,04,01,03,55,6.90
2016,04,01,03,56,6.90
2016,04,01,03,57,7.00
2016,04,01,03,58,7.00
2016,04,01,03,59,7.00
2016,04,01,04,00,7.00
2016,04,01,04,01,7.00
2016,04,01,04,02,7.00
2016,04,01,04,03,6.90
2016,04,01,04,04,6.90
2016,04,01,04,05,6.90
2016,04,01,04,06,6.80
2016,04,01,04,07,6.80
2016,04,01,04,08,6.80
2016,04,01,04,09,6.80
2016,04,01,04,10,6.70
2016,04,01,04,11,6.70
2016,04,01,04,12,6.70
2016,04,01,04,13,6.70
2016,04,01,04,14,6.70
2016,04,01,04,15,6.70
2016,04,01,04,16,6.70
2016,04,01,04,17,6.70
2016,04,01,04,18,6.60
2016,04,01,04,19,6.60
2016,04,01,04,20,6.60
2016,04,01,04,21,6.60
2016,04,01,04,22,6.50
2016,04,01,04,23,6.50
2016,04,01,04,24,6.50
2016,04,01,04,25,6.50
2016,04,01,04,26,6.50
2016,04,01,04,27,6.50
2016,04,01,04,28,6.50
2016,04,01,04,29,6.60
2016,04,01,04,30,6.60
2016,04,01,04,31,6.70
2016,04,01,04,32,6.70
2016,04,01,04,33,6.70
2016,04,01,04,34,6.70
2016,04,01,04,35,6.70
2016,04,01,04,36,6.70
2016,04,01,04,37,6.70
2016,04,01,04,38,6.60
2016,04,01,04,39,6.60
2016,04,01,04,40,6.50
2016,04,01,04,41,6.40
2016,04,01,04,42,6.40
2016,04,01,04,43,6.40
2016,04,01,04,44,6.40
2016,04,01,04,45,6.40
2016,04,01,04,46,6.40
2016,04,01,04,47,6.40
2016,04,01,04,48,6.50
2016,04,01,04,49,6.50
2016,04,01,04,50,6.60
2016,04,01,04,51,6.60
2016,04,01,04,52,6.70
2016,04,01,04,53,6.70
2016,04,01,04,54,6.70
2016,04,01,04,55,6.70
2016,04,01,04,56,6.80
2016,04,01,04,57,6.90
2016,04,01,04,58,7.00
2016,04,01,04,59,7.10
2016,04,01,05,00,7.10
2016,04,01,05,01,7.10
2016,04,01,05,02,7.10
2016,04,01,05,03,7.10
2016,04,01,05,04,7.10
2016,04,01,05,05,7.00
2016,04,01,05,06,7.00
2016,04,01,05,07,6.90
2016,04,01,05,08,6.80
2016,04,01,05,09,6.70
2016,04,01,05,10,6.60
2016,04,01,05,11,6.60
2016,04,01,05,12,6.50
2016,04,01,05,13,6.50
2016,04,01,05,14,6.40
2016,04,01,05,15,6.50
2016,04,01,05,16,6.50
2016,04,01,05,17,6.50
2016,04,01,05,18,6.60
2016,04,01,05,19,6.60
2016,04,01,05,20,6.70
2016,04,01,05,21,6.70
2016,04,01,05,22,6.80
2016,04,01,05,23,6.80
2016,04,01,05,24,6.90
2016,04,01,05,25,7.00
2016,04,01,05,26,7.00
2016,04,01,05,27,7.00
2016,04,01,05,28,6.90
2016,04,01,05,29,6.90
2016,04,01,05,30,6.80
2016,04,01,05,31,6.70
2016,04,01,05,32,6.70
2016,04,01,05,33,6.60
2016,04,01,05,34,6.50
2016,04,01,05,35,6.40
2016,04,01,05,36,6.40
2016,04,01,05,37,6.40
2016,04,01,05,38,6.30
2016,04,01,05,39,6.30
2016,04,01,05,40,6.30
2016,04,01,05,41,6.30
2016,04,01,05,42,6.30
2016,04,01,05,43,6.30
2016,04,01,05,44,6.40
2016,04,01,05,45,6.30
2016,04,01,05,46,6.30
2016,04,01,05,47,6.30
2016,04,01,05,48,6.30
2016,04,01,05,49,6.40
2016,04,01,05,50,6.30
2016,04,01,05,51,6.30
2016,04,01,05,52,6.30
2016,04,01,05,53,6.30
2016,04,01,05,54,6.30
2016,04,01,05,55,6.30
2016,04,01,05,56,6.30
2016,04,01,05,57,6.30
2016,04,01,05,58,6.30
2016,04,01,05,59,6.30
2016,04,01,06,00,6.30
2016,04,01,06,01,6.20
2016,04,01,06,02,6.20
2016,04,01,06,03,6.20
2016,04,01,06,04,6.20
2016,04,01,06,05,6.20
2016,04,01,06,06,6.20
2016,04,01,06,07,6.20
2016,04,01,06,08,6.20
2016,04,01,06,09,6.30
2016,04,01,06,10,6.30
2016,04,01,06,11,6.20
2016,04,01,06,12,6.20
2016,04,01,06,13,6.20
2016,04,01,06,14,6.20
2016,04,01,06,15,6.20
2016,04,01,06,16,6.20
2016,04,01,06,17,6.20
2016,04,01,06,18,6.20
2016,04,01,06,19,6.20
2016,04,01,06,20,6.20
2016,04,01,06,21,6.20
2016,04,01,06,22,6.20
2016,04,01,06,23,6.20
2016,04,01,06,24,6.20
2016,04,01,06,25,6.20
2016,04,01,06,26,6.20
2016,04,01,06,27,6.20
2016,04,01,06,28,6.20
2016,04,01,06,29,6.20
2016,04,01,06,30,6.20
2016,04,01,06,31,6.20
2016,04,01,06,32,6.20
2016,04,01,06,33,6.20
2016,04,01,06,34,6.20
2016,04,01,06,35,6.10
2016,04,01,06,36,6.10
2016,04,01,06,37,6.10
2016,04,01,06,38,6.10
2016,04,01,06,39,6.00
2016,04,01,06,40,6.00
2016,04,01,06,41,6.00
2016,04,01,06,42,5.90
2016,04,01,06,43,5.90
2016,04,01,06,44,5.90
2016,04,01,06,45,5.80
2016,04,01,06,46,5.80
2016,04,01,06,47,5.80
2016,04,01,06,48,5.80
2016,04,01,06,49,5.80
2016,04,01,06,50,5.80
2016,04,01,06,51,5.90
2016,04,01,06,52,5.90
2016,04,01,06,53,6.00
2016,04,01,06,54,6.00
2016,04,01,06,55,6.10
2016,04,01,06,56,6.10
2016,04,01,06,57,6.20
2016,04,01,06,58,6.20
2016,04,01,06,59,6.20
2016,04,01,07,00,6.20
2016,04,01,07,01,6.20
2016,04,01,07,02,6.20
2016,04,01,07,03,6.20
2016,04,01,07,04,6.20
2016,04,01,07,05,6.20
2016,04,01,07,06,6.20
2016,04,01,07,07,6.20
2016,04,01,07,08,6.20
2016,04,01,07,09,6.10
2016,04,01,07,10,6.10
2016,04,01,07,11,6.10
2016,04,01,07,12,6.10
2016,04,01,07,13,6.10
2016,04,01,07,14,6.10
2016,04,01,07,15,6.10
2016,04,01,07,16,6.10
2016,04,01,07,17,6.10
2016,04,01,07,18,6.20
2016,04,01,07,19,6.20
2016,04,01,07,20,6.20
2016,04,01,07,21,6.20
2016,04,01,07,22,6.10
2016,04,01,07,23,6.10
2016,04,01,07,24,6.10
2016,04,01,07,25,6.10
2016,04,01,07,26,6.10
2016,04,01,07,27,6.00
2016,04,01,07,28,6.00
2016,04,01,07,29,6.00
2016,04,01,07,30,5.90
2016,04,01,07,31,5.90
2016,04,01,07,32,5.90
2016,04,01,07,33,5.90
2016,04,01,07,34,5.90
2016,04,01,07,35,5.90
2016,04,01,07,36,6.00
2016,04,01,07,37,6.00
2016,04,01,07,38,6.10
2016,04,01,07,39,6.10
2016,04,01,07,40,6.20
2016,04,01,07,41,6.20
2016,04,01,07,42,6.20
2016,04,01,07,43,6.20
2016,04,01,07,44,6.20
2016,04,01,07,45,6.20
2016,04,01,07,46,6.20
2016,04,01,07,47,6.20
2016,04,01,07,48,6.20
2016,04,01,07,49,6.20
2016,04,01,07,50,6.30
2016,04,01,07,51,6.30
2016,04,01,07,52,6.30
2016,04,01,07,53,6.30
2016,04,01,07,54,6.30
2016,04,01,07,55,6.40
2016,04,01,07,56,6.40
2016,04,01,07,57,6.50
2016,04,01,07,58,6.50
2016,04,01,07,59,6.60
2016,04,01,08,00,6.60
2016,04,01,08,01,6.60
2016,04,01,08,02,6.70
2016,04,01,08,03,6.70
2016,04,01,08,04,6.70
2016,04,01,08,05,6.70
2016,04,01,08,06,6.80
2016,04,01,08,07,6.80
2016,04,01,08,08,6.80
2016,04,01,08,09,6.80
2016,04,01,08,10,6.80
2016,04,01,08,11,6.90
2016,04,01,08,12,6.90
2016,04,01,08,13,6.90
2016,04,01,08,14,6.90
2016,04,01,08,15,7.00
2016,04,01,08,16,7.00
2016,04,01,08,17,7.00
2016,04,01,08,18,7.10
2016,04,01,08,19,7.10
2016,04,01,08,20,7.20
2016,04,01,08,21,7.20
2016,04,01,08,22,7.20
2016,04,01,08,23,7.30
2016,04,01,08,24,7.30
2016,04,01,08,25,7.30
2016,04,01,08,26,7.30
2016,04,01,08,27,7.30
2016,04,01,08,28,7.40
2016,04,01,08,29,7.40
2016,04,01,08,30,7.50
2016,04,01,08,31,7.50
2016,04,01,08,32,7.60
2016,04,01,08,33,7.70
2016,04,01,08,34,7.70
2016,04,01,08,35,7.80
2016,04,01,08,36,7.90
2016,04,01,08,37,7.90
2016,04,01,08,38,8.00
2016,04,01,08,39,8.00
2016,04,01,08,40,8.10
2016,04,01,08,41,8.20
2016,04,01,08,42,8.20
2016,04,01,08,43,8.30
2016,04,01,08,44,8.30
2016,04,01,08,45,8.30
2016,04,01,08,46,8.40
2016,04,01,08,47,8.50
2016,04,01,08,48,8.50
2016,04,01,08,49,8.60
2016,04,01,08,50,8.60
2016,04,01,08,51,8.60
2016,04,01,08,52,8.70
2016,04,01,08,53,8.70
2016,04,01,08,54,8.70
2016,04,01,08,55,8.70
2016,04,01,08,56,8.80
2016,04,01,08,57,8.80
2016,04,01,08,58,8.80
2016,04,01,08,59,8.90
2016,04,01,09,00,8.90
2016,04,01,09,01,8.90
2016,04,01,09,02,8.90
2016,04,01,09,03,8.90
2016,04,01,09,04,9.00
2016,04,01,09,05,9.00
2016,04,01,09,06,9.00
2016,04,01,09,07,9.10
2016,04,01,09,08,9.10
2016,04,01,09,09,9.10
2016,04,01,09,10,9.20
2016,04,01,09,11,9.20
2016,04,01,09,12,9.20
2016,04,01,09,13,9.30
2016,04,01,09,14,9.30
2016,04,01,09,15,9.30
2016,04,01,09,16,9.40
2016,04,01,09,17,9.40
2016,04,01,09,18,9.40
2016,04,01,09,19,9.50
2016,04,01,09,20,9.50
2016,04,01,09,21,9.60
2016,04,01,09,22,9.60
2016,04,01,09,23,9.60
2016,04,01,09,24,9.60
2016,04,01,09,25,9.70
2016,04,01,09,26,9.80
2016,04,01,09,27,9.80
2016,04,01,09,28,9.80
2016,04,01,09,29,9.80
2016,04,01,09,30,9.80
2016,04,01,09,31,9.80
2016,04,01,09,32,9.80
2016,04,01,09,33,9.90
2016,04,01,09,34,9.90
2016,04,01,09,35,10.00
2016,04,01,09,36,10.10
2016,04,01,09,37,10.10
2016,04,01,09,38,10.20
2016,04,01,09,39,10.20
2016,04,01,09,40,10.20
2016,04,01,09,41,10.20
2016,04,01,09,42,10.20
2016,04,01,09,43,10.20
2016,04,01,09,44,10.20
2016,04,01,09,45,10.20
2016,04,01,09,46,10.20
2016,04,01,09,47,10.20
2016,04,01,09,48,10.20
2016,04,01,09,49,10.20
2016,04,01,09,50,10.20
2016,04,01,09,51,10.20
2016,04,01,09,52,10.20
2016,04,01,09,53,10.30
2016,04,01,09,54,10.30
2016,04,01,09,55,10.30
2016,04,01,09,56,10.30
2016,04,01,09,57,10.40
2016,04,01,09,58,10.40
2016,04,01,09,59,10.40
2016,04,01,10,00,10.40
2016,04,01,10,01,10.40
2016,04,01,10,02,10.50
2016,04,01,10,03,10.60
2016,04,01,10,04,10.60
2016,04,01,10,05,10.70
2016,04,01,10,06,10.70
2016,04,01,10,07,10.80
2016,04,01,10,08,10.80
2016,04,01,10,09,10.90
2016,04,01,10,10,11.00
2016,04,01,10,11,11.00
2016,04,01,10,12,11.10
2016,04,01,10,13,11.10
2016,04,01,10,14,11.20
2016,04,01,10,15,11.20
2016,04,01,10,16,11.30
2016,04,01,10,17,11.30
2016,04,01,10,18,11.40
2016,04,01,10,19,11.40
2016,04,01,10,20,11.50
2016,04,01,10,21,11.60
2016,04,01,10,22,11.70
2016,04,01,10,23,11.80
2016,04,01,10,24,11.90
2016,04,01,10,25,12.00
2016,04,01,10,26,12.10
2016,04,01,10,27,12.20
2016,04,01,10,28,12.20
2016,04,01,10,29,12.10
2016,04,01,10,30,12.10
2016,04,01,10,31,12.20
2016,04,01,10,32,12.10
2016,04,01,10,33,12.10
2016,04,01,10,34,12.10
2016,04,01,10,35,12.10
2016,04,01,10,36,12.10
2016,04,01,10,37,12.20
2016,04,01,10,38,12.20
2016,04,01,10,39,12.30
2016,04,01,10,40,12.30
2016,04,01,10,41,12.40
2016,04,01,10,42,12.40
2016,04,01,10,43,12.40
2016,04,01,10,44,12.40
2016,04,01,10,45,12.50
2016,04,01,10,46,12.50
2016,04,01,10,47,12.50
2016,04,01,10,48,12.60
2016,04,01,10,49,12.60
2016,04,01,10,50,12.70
2016,04,01,10,51,12.70
2016,04,01,10,52,12.70
2016,04,01,10,53,12.70
2016,04,01,10,54,12.70
2016,04,01,10,55,12.70
2016,04,01,10,56,12.70
2016,04,01,10,57,12.60
2016,04,01,10,58,12.60
2016,04,01,10,59,12.70
2016,04,01,11,00,12.60
2016,04,01,11,01,12.60
2016,04,01,11,02,12.60
2016,04,01,11,03,12.60
2016,04,01,11,04,12.60
2016,04,01,11,05,12.60
2016,04,01,11,06,12.60
2016,04,01,11,07,12.60
2016,04,01,11,08,12.60
2016,04,01,11,09,12.60
2016,04,01,11,10,12.60
2016,04,01,11,11,12.60
2016,04,01,11,12,12.60
2016,04,01,11,13,12.60
2016,04,01,11,14,12.60
2016,04,01,11,15,12.70
2016,04,01,11,16,12.60
2016,04,01,11,17,12.60
2016,04,01,11,18,12.60
2016,04,01,11,19,12.50
2016,04,01,11,20,12.50
2016,04,01,11,21,12.60
2016,04,01,11,22,12.60
2016,04,01,11,23,12.60
2016,04,01,11,24,12.60
2016,04,01,11,25,12.60
2016,04,01,11,26,12.60
2016,04,01,11,27,12.60
2016,04,01,11,28,12.60
2016,04,01,11,29,12.70
2016,04,01,11,30,12.70
2016,04,01,11,31,12.70
2016,04,01,11,32,12.70
2016,04,01,11,33,12.70
2016,04,01,11,34,12.80
2016,04,01,11,35,12.90
2016,04,01,11,36,12.90
2016,04,01,11,37,13.00
2016,04,01,11,38,13.10
2016,04,01,11,39,13.10
2016,04,01,11,40,13.20
2016,04,01,11,41,13.20
2016,04,01,11,42,13.20
2016,04,01,11,43,13.20
2016,04,01,11,44,13.30
2016,04,01,11,45,13.30
2016,04,01,11,46,13.30
2016,04,01,11,47,13.40
2016,04,01,11,48,13.50
2016,04,01,11,49,13.60
2016,04,01,11,50,13.70
2016,04,01,11,51,13.80
2016,04,01,11,52,13.80
2016,04,01,11,53,13.80
2016,04,01,11,54,13.80
2016,04,01,11,55,13.90
2016,04,01,11,56,13.80
2016,04,01,11,57,13.80
2016,04,01,11,58,13.70
2016,04,01,11,59,13.70
2016,04,01,12,00,13.70
2016,04,01,12,01,13.70
2016,04,01,12,02,13.70
2016,04,01,12,03,13.80
2016,04,01,12,04,13.80
2016,04,01,12,05,13.80
2016,04,01,12,06,13.90
2016,04,01,12,07,14.00
2016,04,01,12,08,14.10
2016,04,01,12,09,14.10
2016,04,01,12,10,14.10
2016,04,01,12,11,14.20
2016,04,01,12,12,14.30
2016,04,01,12,13,14.40
2016,04,01,12,14,14.50
2016,04,01,12,15,14.60
2016,04,01,12,16,14.60
2016,04,01,12,17,14.60
2016,04,01,12,18,14.70
2016,04,01,12,19,14.80
2016,04,01,12,20,15.00
2016,04,01,12,21,15.00
2016,04,01,12,22,15.00
2016,04,01,12,23,15.00
2016,04,01,12,24,15.10
2016,04,01,12,25,15.20
2016,04,01,12,26,15.20
2016,04,01,12,27,15.30
2016,04,01,12,28,15.30
2016,04,01,12,29,15.40
2016,04,01,12,30,15.40
2016,04,01,12,31,15.40
2016,04,01,12,32,15.30
2016,04,01,12,33,15.20
2016,04,01,12,34,15.00
2016,04,01,12,35,15.00
2016,04,01,12,36,14.90
2016,04,01,12,37,14.90
2016,04,01,12,38,14.90
2016,04,01,12,39,15.00
2016,04,01,12,40,15.00
2016,04,01,12,41,15.00
2016,04,01,12,42,15.00
2016,04,01,12,43,15.10
2016,04,01,12,44,15.20
2016,04,01,12,45,15.20
2016,04,01,12,46,15.20
2016,04,01,12,47,15.20
2016,04,01,12,48,15.20
2016,04,01,12,49,15.10
2016,04,01,12,50,15.10
2016,04,01,12,51,15.10
2016,04,01,12,52,15.00
2016,04,01,12,53,15.00
2016,04,01,12,54,15.00
2016,04,01,12,55,15.00
2016,04,01,12,56,15.00
2016,04,01,12,57,15.00
2016,04,01,12,58,15.00
2016,04,01,12,59,15.00
2016,04,01,13,00,14.90
2016,04,01,13,01,14.90
2016,04,01,13,02,14.80
2016,04,01,13,03,14.80
2016,04,01,13,04,14.70
2016,04,01,13,05,14.40
2016,04,01,13,06,14.20
2016,04,01,13,07,14.10
2016,04,01,13,08,13.90
2016,04,01,13,09,13.90
2016,04,01,13,10,13.80
2016,04,01,13,11,13.70
2016,04,01,13,12,13.60
2016,04,01,13,13,13.50
2016,04,01,13,14,13.50
2016,04,01,13,15,13.30
2016,04,01,13,16,13.20
2016,04,01,13,17,13.10
2016,04,01,13,18,13.10
2016,04,01,13,19,13.10
2016,04,01,13,20,13.10
2016,04,01,13,21,13.20
2016,04,01,13,22,13.30
2016,04,01,13,23,13.50
2016,04,01,13,24,13.60
2016,04,01,13,25,13.70
2016,04,01,13,26,13.80
2016,04,01,13,27,13.90
2016,04,01,13,28,14.00
2016,04,01,13,29,14.10
2016,04,01,13,30,14.10
2016,04,01,13,31,14.00
2016,04,01,13,32,14.00
2016,04,01,13,33,13.90
2016,04,01,13,34,13.90
2016,04,01,13,35,13.80
2016,04,01,13,36,13.80
2016,04,01,13,37,13.80
2016,04,01,13,38,13.90
2016,04,01,13,39,13.90
2016,04,01,13,40,14.00
2016,04,01,13,41,14.00
2016,04,01,13,42,14.00
2016,04,01,13,43,14.10
2016,04,01,13,44,14.20
2016,04,01,13,45,14.20
2016,04,01,13,46,14.20
2016,04,01,13,47,14.30
2016,04,01,13,48,14.40
2016,04,01,13,49,14.50
2016,04,01,13,50,14.60
2016,04,01,13,51,14.70
2016,04,01,13,52,14.80
2016,04,01,13,53,14.80
2016,04,01,13,54,14.90
2016,04,01,13,55,15.00
2016,04,01,13,56,15.00
2016,04,01,13,57,15.00
2016,04,01,13,58,15.10
2016,04,01,13,59,15.20
2016,04,01,14,00,15.30
2016,04,01,14,01,15.20
2016,04,01,14,02,15.10
2016,04,01,14,03,15.00
2016,04,01,14,04,15.00
2016,04,01,14,05,14.90
2016,04,01,14,06,14.80
2016,04,01,14,07,14.80
2016,04,01,14,08,14.80
2016,04,01,14,09,14.70
2016,04,01,14,10,14.80
2016,04,01,14,11,14.80
2016,04,01,14,12,14.80
2016,04,01,14,13,14.90
2016,04,01,14,14,15.00
2016,04,01,14,15,15.00
2016,04,01,14,16,15.00
2016,04,01,14,17,15.00
2016,04,01,14,18,15.00
2016,04,01,14,19,15.00
2016,04,01,14,20,15.00
2016,04,01,14,21,14.80
2016,04,01,14,22,14.70
2016,04,01,14,23,14.70
2016,04,01,14,24,14.70
2016,04,01,14,25,14.60
2016,04,01,14,26,14.60
2016,04,01,14,27,14.70
2016,04,01,14,28,14.70
2016,04,01,14,29,14.80
2016,04,01,14,30,14.80
2016,04,01,14,31,14.80
2016,04,01,14,32,14.80
2016,04,01,14,33,15.00
2016,04,01,14,34,15.00
2016,04,01,14,35,15.00
2016,04,01,14,36,15.20
2016,04,01,14,37,15.30
2016,04,01,14,38,15.40
2016,04,01,14,39,15.50
2016,04,01,14,40,15.60
2016,04,01,14,41,15.60
2016,04,01,14,42,15.60
2016,04,01,14,43,15.50
2016,04,01,14,44,15.50
2016,04,01,14,45,15.50
2016,04,01,14,46,15.50
2016,04,01,14,47,15.60
2016,04,01,14,48,15.50
2016,04,01,14,49,15.40
2016,04,01,14,50,15.40
2016,04,01,14,51,15.20
2016,04,01,14,52,15.10
2016,04,01,14,53,15.00
2016,04,01,14,54,15.00
2016,04,01,14,55,15.00
2016,04,01,14,56,15.10
2016,04,01,14,57,15.10
2016,04,01,14,58,15.20
2016,04,01,14,59,15.20
2016,04,01,15,00,15.30
2016,04,01,15,01,15.30
2016,04,01,15,02,15.30
2016,04,01,15,03,15.30
2016,04,01,15,04,15.20
2016,04,01,15,05,15.10
2016,04,01,15,06,15.00
2016,04,01,15,07,15.00
2016,04,01,15,08,15.00
2016,04,01,15,09,15.00
2016,04,01,15,10,15.00
2016,04,01,15,11,15.10
2016,04,01,15,12,15.20
2016,04,01,15,13,15.30
2016,04,01,15,14,15.30
2016,04,01,15,15,15.30
2016,04,01,15,16,15.40
2016,04,01,15,17,15.30
2016,04,01,15,18,15.40
2016,04,01,15,19,15.30
2016,04,01,15,20,15.20
2016,04,01,15,21,15.20
2016,04,01,15,22,15.10
2016,04,01,15,23,15.10
2016,04,01,15,24,15.10
2016,04,01,15,25,15.10
2016,04,01,15,26,15.20
2016,04,01,15,27,15.20
2016,04,01,15,28,15.20
2016,04,01,15,29,15.20
2016,04,01,15,30,15.30
2016,04,01,15,31,15.30
2016,04,01,15,32,15.40
2016,04,01,15,33,15.30
2016,04,01,15,34,15.30
2016,04,01,15,35,15.30
2016,04,01,15,36,15.30
2016,04,01,15,37,15.20
2016,04,01,15,38,15.20
2016,04,01,15,39,15.20
2016,04,01,15,40,15.20
2016,04,01,15,41,15.10
2016,04,01,15,42,15.10
2016,04,01,15,43,15.10
2016,04,01,15,44,15.10
2016,04,01,15,45,15.20
2016,04,01,15,46,15.30
2016,04,01,15,47,15.30
2016,04,01,15,48,15.30
2016,04,01,15,49,15.30
2016,04,01,15,50,15.40
2016,04,01,15,51,15.40
2016,04,01,15,52,15.40
2016,04,01,15,53,15.30
2016,04,01,15,54,15.30
2016,04,01,15,55,15.30
2016,04,01,15,56,15.30
2016,04,01,15,57,15.20
2016,04,01,15,58,15.20
2016,04,01,15,59,15.20
2016,04,01,16,00,15.20
2016,04,01,16,01,15.20
2016,04,01,16,02,15.20
2016,04,01,16,03,15.30
2016,04,01,16,04,15.40
2016,04,01,16,05,15.50
2016,04,01,16,06,15.50
2016,04,01,16,07,15.60
2016,04,01,16,08,15.70
2016,04,01,16,09,15.70
2016,04,01,16,10,15.70
2016,04,01,16,11,15.70
2016,04,01,16,12,15.60
2016,04,01,16,13,15.50
2016,04,01,16,14,15.40
2016,04,01,16,15,15.40
2016,04,01,16,16,15.30
2016,04,01,16,17,15.40
2016,04,01,16,18,15.40
2016,04,01,16,19,15.40
2016,04,01,16,20,15.40
2016,04,01,16,21,15.40
2016,04,01,16,22,15.40
2016,04,01,16,23,15.40
2016,04,01,16,24,15.30
2016,04,01,16,25,15.20
2016,04,01,16,26,15.20
2016,04,01,16,27,15.20
2016,04,01,16,28,15.30
2016,04,01,16,29,15.30
2016,04,01,16,30,15.30
2016,04,01,16,31,15.40
2016,04,01,16,32,15.50
2016,04,01,16,33,15.60
2016,04,01,16,34,15.60
2016,04,01,16,35,15.60
2016,04,01,16,36,15.70
2016,04,01,16,37,15.70
2016,04,01,16,38,15.80
2016,04,01,16,39,15.80
2016,04,01,16,40,15.80
2016,04,01,16,41,15.80
2016,04,01,16,42,15.80
2016,04,01,16,43,15.80
2016,04,01,16,44,15.80
2016,04,01,16,45,15.80
2016,04,01,16,46,15.70
2016,04,01,16,47,15.60
2016,04,01,16,48,15.50
2016,04,01,16,49,15.40
2016,04,01,16,50,15.20
2016,04,01,16,51,15.10
2016,04,01,16,52,15.00
2016,04,01,16,53,15.00
2016,04,01,16,54,15.00
2016,04,01,16,55,15.00
2016,04,01,16,56,15.00
2016,04,01,16,57,15.00
2016,04,01,16,58,15.00
2016,04,01,16,59,15.00
2016,04,01,17,00,15.00
2016,04,01,17,01,15.00
2016,04,01,17,02,15.00
2016,04,01,17,03,15.00
2016,04,01,17,04,15.00
2016,04,01,17,05,15.00
2016,04,01,17,06,15.00
2016,04,01,17,07,15.00
2016,04,01,17,08,15.00
2016,04,01,17,09,14.90
2016,04,01,17,10,14.90
2016,04,01,17,11,14.90
2016,04,01,17,12,14.90
2016,04,01,17,13,15.00
2016,04,01,17,14,15.00
2016,04,01,17,15,15.00
2016,04,01,17,16,15.00
2016,04,01,17,17,15.00
2016,04,01,17,18,15.00
2016,04,01,17,19,15.00
2016,04,01,17,20,15.00
2016,04,01,17,21,15.00
2016,04,01,17,22,15.00
2016,04,01,17,23,15.00
2016,04,01,17,24,15.00
2016,04,01,17,25,15.00
2016,04,01,17,26,15.00
2016,04,01,17,27,15.00
2016,04,01,17,28,15.00
2016,04,01,17,29,15.00
2016,04,01,17,30,15.00
2016,04,01,17,31,15.00
2016,04,01,17,32,15.00
2016,04,01,17,33,15.00
2016,04,01,17,34,15.00
2016,04,01,17,35,15.00
2016,04,01,17,36,15.00
2016,04,01,17,37,15.00
2016,04,01,17,38,15.00
2016,04,01,17,39,15.00
2016,04,01,17,40,15.00
2016,04,01,17,41,15.00
2016,04,01,17,42,15.00
2016,04,01,17,43,15.00
2016,04,01,17,44,15.00